Location: Igon
(43.1667°N, 0.2333°W)
Time: 21:58:39
(UTC+00:00)

NOSS 3-2 (C) - Pass Details

Date: 29 November 2020
Orbit: 789 x 1424 km, 63.4° (Epoch: 09 January)

Event Time Altitude Azimuth Distance (km) Brightness Sun altitude
Exits shadow 04:00:11 85° 28° (NNE) 1,311 4.0 -34.2°
Maximum altitude 04:00:18 86° 53° (NE) 1,312 4.0 -34.2°
Drops below altitude 10° 04:08:55 10° 144° (SE) 3,471 6.7 -32.6°
Sets 04:11:55 0° 145° (SE) 4,474 7.4 -32.1°
